Tracking 33873 objects as of 21-Apr-2026
HD Live streaming from Space Station
objects crossing your sky now

BREEZE-M R/B

Track BREEZE-M R/B now!


NORAD ID: 34711
Int'l Code: 2009-016B
Perigee: 3,760.3 km
Apogee: 33,386.1 km
Inclination: 21.4 °
Period: 653.5 minutes
Semi major axis: 24944 km
RCS: 9.3076 m2 (large)
Launch date: April 3, 2009
Source: Commonwealth of Independent States (former USSR) (CIS)
Launch site: TYURATAM MISSILE AND SPACE COMPLEX (TTMTR)

Note: This is a ROCKET BODY
Your satellite tracking list
Your tracking list is empty




NASA's NSSDC Master Catalog

Two Line Element Set (TLE):
1 34711U 09016B   26109.94835512 -.00000074  00000-0  00000-0 0  9999
2 34711  21.3595 324.8821 5938414 340.4347   4.1097  2.20367993145260
Source of the keplerian elements: AFSPC